Location: Limerick
(52.6650°N, 8.6230°W)
Time: 19:48:35
(UTC+01:00)

ISS - Pass Details

Date: 17 July 2017
Orbit: 400 x 408 km, 51.6° (Epoch: 21 July)

Event Time Altitude Azimuth Distance (km) Brightness Sun altitude
Exits shadow 02:52:15 32° 209° (SSW) 708 -3.2 -14.5°
Maximum altitude 02:53:15 45° 160° (SSE) 559 -3.5 -14.5°
Drops below altitude 10° 02:56:24 10° 86° (E) 1,458 -0.7 -14.3°
Sets 02:58:32 0° 80° (E) 2,321 0.4 -14.2°
